TimeEST,TemperatureF,Dew PointF,Humidity,Sea Level PressureIn,VisibilityMPH,Wind Direction,Wind SpeedMPH,Gust SpeedMPH,PrecipitationIn,Events,Conditions,WindDirDegrees,DateUTC
12:14 AM,28.2,27.7,98,30.14,0.2,Calm,Calm,-,N/A,Fog,Light Freezing Fog,0,2012-11-21 05:14:00
12:34 AM,27.9,27.3,98,30.14,0.8,Calm,Calm,-,N/A,,Overcast,0,2012-11-21 05:34:00
12:54 AM,26.8,25.9,96,30.14,7.0,West,3.5,-,N/A,,Mostly Cloudy,260,2012-11-21 05:54:00
1:14 AM,26.4,25.5,96,30.15,0.5,Calm,Calm,-,N/A,Fog,Light Freezing Fog,0,2012-11-21 06:14:00
1:34 AM,29.8,29.3,98,30.15,2.5,Calm,Calm,-,N/A,,Scattered Clouds,0,2012-11-21 06:34:00
1:54 AM,30.9,30.4,98,30.15,2.5,Calm,Calm,-,N/A,,Clear,0,2012-11-21 06:54:00
2:14 AM,28.2,27.1,96,30.15,5.0,Calm,Calm,-,N/A,,Clear,0,2012-11-21 07:14:00
2:34 AM,27.7,26.6,96,30.16,0.8,Calm,Calm,-,N/A,,Mostly Cloudy,0,2012-11-21 07:34:00
2:54 AM,28.8,27.5,95,30.16,4.0,Calm,Calm,-,N/A,,Scattered Clouds,0,2012-11-21 07:54:00
3:14 AM,27.9,25.9,92,30.16,7.0,Calm,Calm,-,N/A,,Mostly Cloudy,0,2012-11-21 08:14:00
3:34 AM,27.3,26.2,96,30.16,0.2,Calm,Calm,-,N/A,Fog,Light Freezing Fog,0,2012-11-21 08:34:00
3:54 AM,27.5,26.8,97,30.15,0.2,Calm,Calm,-,N/A,Fog,Light Freezing Fog,0,2012-11-21 08:54:00
4:14 AM,27.0,26.4,98,30.15,0.2,Calm,Calm,-,N/A,Fog,Light Freezing Fog,0,2012-11-21 09:14:00
4:34 AM,25.5,25.3,99,30.16,0.2,Calm,Calm,-,N/A,Fog,Light Freezing Fog,0,2012-11-21 09:34:00
4:54 AM,25.7,25.5,99,30.16,0.2,Calm,Calm,-,N/A,Fog,Light Freezing Fog,0,2012-11-21 09:54:00
5:14 AM,28.0,27.7,99,30.17,0.2,NW,3.5,-,N/A,Fog,Light Freezing Fog,320,2012-11-21 10:14:00
5:33 AM,26.2,25.9,99,30.18,0.2,Calm,Calm,-,N/A,Fog,Light Freezing Fog,0,2012-11-21 10:33:00
5:54 AM,25.9,25.5,99,30.18,0.2,Calm,Calm,-,N/A,Fog,Light Freezing Fog,0,2012-11-21 10:54:00
6:14 AM,25.3,24.8,98,30.18,0.2,Calm,Calm,-,N/A,Fog,Light Freezing Fog,0,2012-11-21 11:14:00
6:33 AM,25.3,25.0,99,30.18,0.2,Calm,Calm,-,N/A,Fog,Light Freezing Fog,0,2012-11-21 11:33:00
6:54 AM,26.4,26.1,99,30.18,0.2,Calm,Calm,-,N/A,Fog,Light Freezing Fog,0,2012-11-21 11:54:00
7:14 AM,28.4,28.0,99,30.18,2.0,Calm,Calm,-,N/A,,Overcast,0,2012-11-21 12:14:00
7:33 AM,30.2,29.7,98,30.20,3.0,Calm,Calm,-,N/A,,Overcast,0,2012-11-21 12:33:00
7:54 AM,31.3,30.9,99,30.20,2.0,Calm,Calm,-,N/A,,Overcast,0,2012-11-21 12:54:00
8:14 AM,32.0,31.6,99,30.20,2.0,Calm,Calm,-,N/A,,Overcast,0,2012-11-21 13:14:00
8:34 AM,32.9,32.2,97,30.20,2.5,Calm,Calm,-,N/A,,Overcast,0,2012-11-21 13:34:00
8:54 AM,34.7,34.0,97,30.19,2.5,Calm,Calm,-,N/A,,Overcast,0,2012-11-21 13:54:00
9:14 AM,35.6,34.9,97,30.20,2.5,Calm,Calm,-,N/A,,Overcast,0,2012-11-21 14:14:00
9:34 AM,37.4,36.5,97,30.21,3.0,Calm,Calm,-,N/A,,Overcast,0,2012-11-21 14:34:00
9:54 AM,38.3,37.4,97,30.20,4.0,Calm,Calm,-,N/A,,Overcast,0,2012-11-21 14:54:00
10:14 AM,39.2,37.9,95,30.20,4.0,Calm,Calm,-,N/A,,Overcast,0,2012-11-21 15:14:00
10:34 AM,41.2,39.9,95,30.20,4.0,SW,3.5,-,N/A,,Overcast,230,2012-11-21 15:34:00
10:54 AM,42.8,40.8,93,30.20,5.0,SW,4.6,-,N/A,,Overcast,220,2012-11-21 15:54:00
11:14 AM,45.0,41.9,89,30.19,7.0,SSW,5.8,-,N/A,,Overcast,210,2012-11-21 16:14:00
11:34 AM,46.0,41.9,85,30.18,7.0,South,4.6,-,N/A,,Overcast,190,2012-11-21 16:34:00
11:54 AM,47.8,42.3,81,30.18,7.0,South,6.9,-,N/A,,Overcast,180,2012-11-21 16:54:00
12:14 PM,50.9,42.8,74,30.16,10.0,SSW,5.8,-,N/A,,Scattered Clouds,200,2012-11-21 17:14:00
12:34 PM,51.8,42.3,70,30.16,10.0,SSW,11.5,-,N/A,,Clear,210,2012-11-21 17:34:00
12:54 PM,52.5,42.1,68,30.16,10.0,SW,13.8,-,N/A,,Clear,220,2012-11-21 17:54:00
1:14 PM,52.7,42.1,67,30.15,10.0,SSW,11.5,-,N/A,,Clear,210,2012-11-21 18:14:00
1:34 PM,52.2,41.9,68,30.14,10.0,South,9.2,-,N/A,,Clear,190,2012-11-21 18:34:00
1:54 PM,52.7,42.1,67,30.13,7.0,SSW,11.5,-,N/A,,Clear,200,2012-11-21 18:54:00
2:14 PM,53.4,42.1,65,30.12,7.0,South,11.5,-,N/A,,Clear,190,2012-11-21 19:14:00
2:34 PM,53.2,41.9,65,30.12,7.0,SSW,9.2,16.1,N/A,,Clear,200,2012-11-21 19:34:00
2:54 PM,53.1,42.1,66,30.12,10.0,SSW,10.4,-,N/A,,Clear,210,2012-11-21 19:54:00
3:14 PM,52.5,42.1,68,30.12,7.0,SSW,10.4,-,N/A,,Clear,200,2012-11-21 20:14:00
3:34 PM,51.8,41.9,69,30.12,7.0,South,9.2,-,N/A,,Clear,190,2012-11-21 20:34:00
3:54 PM,51.1,41.7,70,30.11,7.0,South,8.1,-,N/A,,Clear,190,2012-11-21 20:54:00
4:14 PM,50.0,41.4,72,30.10,7.0,South,9.2,-,N/A,,Clear,190,2012-11-21 21:14:00
4:34 PM,49.3,41.0,73,30.10,5.0,SSW,9.2,-,N/A,,Haze,200,2012-11-21 21:34:00
4:59 PM,48.2,40.8,76,30.10,5.0,SSW,9.2,-,N/A,,Haze,200,2012-11-21 21:59:00
5:14 PM,47.3,40.5,77,30.11,5.0,SSW,6.9,-,N/A,,Haze,200,2012-11-21 22:14:00
5:34 PM,45.5,40.1,81,30.10,7.0,South,5.8,-,N/A,,Clear,180,2012-11-21 22:34:00
5:54 PM,46.0,40.3,80,30.10,7.0,South,5.8,-,N/A,,Clear,180,2012-11-21 22:54:00
6:14 PM,45.5,40.3,82,30.10,5.0,South,6.9,-,N/A,,Haze,190,2012-11-21 23:14:00
6:34 PM,45.1,40.1,82,30.10,7.0,SSW,6.9,-,N/A,,Clear,200,2012-11-21 23:34:00
6:53 PM,45.1,40.3,83,30.10,7.0,SSW,6.9,-,N/A,,Clear,200,2012-11-21 23:53:00
7:14 PM,44.8,40.1,84,30.10,5.0,South,6.9,-,N/A,,Haze,190,2012-11-22 00:14:00
7:34 PM,45.7,40.5,82,30.09,7.0,South,10.4,-,N/A,,Clear,190,2012-11-22 00:34:00
7:53 PM,46.4,40.5,80,30.09,7.0,SSW,9.2,-,N/A,,Clear,200,2012-11-22 00:53:00
8:14 PM,45.9,40.5,81,30.09,5.0,SSW,8.1,-,N/A,,Haze,200,2012-11-22 01:14:00
8:34 PM,44.8,40.3,84,30.09,5.0,SSW,8.1,-,N/A,,Haze,210,2012-11-22 01:34:00
8:54 PM,44.6,40.3,85,30.08,5.0,SSW,8.1,-,N/A,,Haze,210,2012-11-22 01:54:00
9:14 PM,44.8,40.3,84,30.08,5.0,SSW,8.1,-,N/A,,Haze,210,2012-11-22 02:14:00
9:34 PM,45.0,40.8,85,30.07,5.0,South,9.2,-,N/A,,Clear,190,2012-11-22 02:34:00
9:54 PM,45.1,41.0,85,30.07,5.0,SSW,10.4,-,N/A,,Clear,200,2012-11-22 02:54:00
10:14 PM,44.1,40.3,87,30.06,5.0,South,6.9,-,N/A,,Clear,180,2012-11-22 03:14:00
10:34 PM,43.9,40.6,88,30.06,5.0,South,8.1,-,N/A,,Clear,190,2012-11-22 03:34:00
10:54 PM,45.0,41.4,87,30.05,5.0,SSW,10.4,-,N/A,,Clear,200,2012-11-22 03:54:00
11:14 PM,45.1,41.4,87,30.04,5.0,SSW,10.4,-,N/A,,Clear,200,2012-11-22 04:14:00
11:34 PM,44.8,41.0,87,30.04,5.0,SSW,11.5,-,N/A,,Clear,210,2012-11-22 04:34:00
11:54 PM,44.2,41.0,88,30.04,4.0,SSW,13.8,-,N/A,,Clear,210,2012-11-22 04:54:00